Printer-friendly version

IAU Minor Planet Center

Minor Planet Center

MPEC 2003-Q46 : 2003 QQ47

The following Minor Planet Electronic Circular may be linked-to from your own Web pages, but must not otherwise be redistributed electronically.


Read MPEC 2003-Q45 Read MPEC 2003-Q47


M.P.E.C. 2003-Q46                                Issued 2003 Aug. 27, 13:07 UT

     The Minor Planet Electronic Circulars contain information on unusual
         minor planets and routine data on comets.  They are published
   on behalf of Commission 20 of the International Astronomical Union by the
          Minor Planet Center, Smithsonian Astrophysical Observatory,
                          Cambridge, MA 02138, U.S.A.

             Prepared using the Tamkin Foundation Computer Network

                              MPC@CFA.HARVARD.EDU
          URL http://cfa-www.harvard.edu/iau/mpc.html  ISSN 1523-6714

                                   2003 QQ47

Observations:
     K03Q47Q* C2003 08 24.39941 04 29 09.27 +28 43 38.1          18.7        704
     K03Q47Q  C2003 08 24.41220 04 29 11.73 +28 44 52.2          19.7        704
     K03Q47Q  C2003 08 24.42506 04 29 13.76 +28 46 08.2          19.0        704
     K03Q47Q  C2003 08 24.43773 04 29 16.00 +28 47 21.9          18.7        704
     K03Q47Q  C2003 08 24.45025 04 29 18.19 +28 48 35.5          18.7        704
     K03Q47Q  C2003 08 25.05294 04 31 08.08 +29 47 27.8          19.5 R      J87
     K03Q47Q  C2003 08 25.05487 04 31 08.55 +29 47 37.5          18.9 R      J87
     K03Q47Q  C2003 08 25.05678 04 31 08.82 +29 47 49.1          18.6 R      J87
     K03Q47Q  C2003 08 25.05871 04 31 09.23 +29 48 00.9          18.9 R      J87
     K03Q47Q  C2003 08 25.06065 04 31 09.54 +29 48 12.2          18.7 R      J87
     K03Q47Q  C2003 08 25.39430 04 32 12.04 +30 21 20.3          18.9        704
     K03Q47Q  C2003 08 25.40736 04 32 14.43 +30 22 39.2          19.2        704
     K03Q47Q  C2003 08 25.42374 04 32 17.47 +30 24 17.7          19.3        704
     K03Q47Q  C2003 08 25.43691 04 32 19.93 +30 25 37.2          19.2        704
     K03Q47Q  C2003 08 25.44963 04 32 22.28 +30 26 54.8          20.3        704
     K03Q47Q  C2003 08 26.38605 04 35 24.84 +32 01 29.9          18.3        704
     K03Q47Q  C2003 08 26.39881 04 35 27.35 +32 02 50.2          18.6        704
     K03Q47Q  C2003 08 26.41234 04 35 29.90 +32 04 13.5          18.9        704
     K03Q47Q  C2003 08 26.41432 04 35 30.46 +32 04 28.0          18.4        704
     K03Q47Q  C2003 08 26.42598 04 35 32.62 +32 05 40.2          18.6        704
     K03Q47Q  C2003 08 26.42831 04 35 33.18 +32 05 54.4          18.9        704
     K03Q47Q  C2003 08 26.43934 04 35 35.34 +32 07 00.5          18.7        704
     K03Q47Q  C2003 08 26.44204 04 35 35.89 +32 07 19.1          18.7        704
     K03Q47Q  C2003 08 26.45519 04 35 38.55 +32 08 40.5          19.3        704
     K03Q47Q  C2003 08 26.46843 04 35 41.07 +32 10 02.1          18.9        704
     K03Q47Q  C2003 08 27.06733 04 37 43.92 +33 11 55.8          18.6 R      106
     K03Q47Q  C2003 08 27.07622 04 37 45.73 +33 12 51.6          18.8 R      106
     K03Q47Q  C2003 08 27.08722 04 37 48.04 +33 14 00.6          18.6 R      106
     K03Q47Q  C2003 08 27.08819 04 37 48.18 +33 14 05.6                      246
     K03Q47Q  C2003 08 27.08851 04 37 48.26 +33 14 07.7                      246
     K03Q47Q  C2003 08 27.08903 04 37 48.36 +33 14 11.2                      246
     K03Q47Q  C2003 08 27.08958 04 37 48.49 +33 14 14.3                      246
     K03Q47Q  C2003 08 27.08997 04 37 48.56 +33 14 17.5                      246

Observer details:
106 Crni Vrh.  Observer H. Mikuz.  0.60-m f/3.3 Deltagraph + CCD..
246 Klet Observatory-KLENOT.  Observers M. Tichy, M. Kocer.  1.06-m KLENOT
    Telescope + CCD.
704 Lincoln Laboratory ETS, New Mexico.  Observers M. Blythe, F. Shelly,
    M. Bezpalko, R. Huber, L. Manguso, S. Adams, D. Torres, T. Brothers,
    S. Partridge.  Measurers J. Stuart, R. Sayer, J. Evans, P. Hopman.  1.0-m
    f/2.15 reflector + CCD.
J87 La Canada.  Observer J. Lacruz.  0.30-m f/3.3 Schmidt-Cassegrain + CCD.

Orbital elements:
2003 QQ47                                                            PHA 0.047D
Epoch 2003 Aug. 9.0 TT = JDT 2452860.5                  MPC
M 275.52814              (2000.0)            P               Q
n   0.83495846     Peri.   98.00440     -0.15075156     -0.98831433
a   1.1169305      Node     1.45499     +0.06395639     -0.03251910
e   0.1931861      Incl.   62.66174     +0.98650066     -0.14892045
P   1.18           H   17.8           G   0.15
From 33 observations 2003 Aug. 24-27.

Ephemeris:
2003 QQ47                a,e,i = 1.12, 0.19, 63                  q = 0.9012
Date    TT    R. A. (2000) Decl.     Delta      r     Elong.  Phase     V
2003 08 19    04 15.09   +20 42.7    0.656    1.106    80.0    64.3    19.4
2003 08 29    04 44.88   +36 38.5    0.558    1.074    81.0    68.2    19.1
2003 09 08    05 45.43   +56 05.3    0.512    1.042    79.4    71.8    19.0
2003 09 18    08 29.3    +70 59.8    0.535    1.011    75.3    74.0    19.1
2003 09 28    12 12.37   +68 25.8    0.615    0.982    70.2    73.7    19.3
2003 10 08    13 42.10   +58 40.7    0.726    0.956    65.1    71.4    19.5
2003 10 18    14 18.21   +49 57.1    0.845    0.934    60.3    67.9    19.7
2003 10 28    14 37.12   +42 41.8    0.957    0.917    56.0    64.0    19.8
2003 11 07    14 48.97   +36 24.6    1.053    0.906    52.5    60.3    19.9
2003 11 17    14 57.55   +30 38.3    1.125    0.901    50.0    57.1    19.9
2003 11 27    15 04.68   +25 03.6    1.170    0.904    48.6    55.0    19.9
2003 12 07    15 11.31   +19 26.6    1.186    0.913    48.7    54.1    20.0
2003 12 17    15 18.07   +13 35.2    1.174    0.929    50.1    54.3    20.0
2003 12 27    15 25.38   +07 17.9    1.137    0.950    52.7    55.4    20.0
2004 01 06    15 33.54   +00 21.3    1.079    0.976    56.3    56.9    20.0
2004 01 16    15 42.88   -07 31.1    1.006    1.004    60.6    58.6    19.9
2004 01 26    15 53.85   -16 38.7    0.927    1.035    65.5    59.9    19.9
2004 02 05    16 07.15   -27 20.6    0.851    1.067    70.6    60.6    19.8
2004 02 15    16 24.40   -39 44.8    0.790    1.099    75.4    60.4    19.7
2004 02 25    16 49.38   -53 28.7    0.755    1.130    79.5    59.4    19.6
2004 03 06    17 34.24   -67 19.5    0.752    1.161    82.2    57.9    19.6
2004 03 16    19 34.2    -78 44.0    0.782    1.189    83.1    56.1    19.7
2004 03 26    00 18.4    -80 16.2    0.838    1.216    82.5    54.4    19.8
2004 04 05    02 32.3    -73 18.8    0.910    1.241    80.8    52.8    20.0
2004 04 15    03 21.04   -66 20.6    0.989    1.263    78.6    51.2    20.2
2004 04 25    03 48.12   -60 37.0    1.067    1.282    76.3    49.7    20.3
2004 05 05    04 07.21   -56 05.5    1.136    1.298    74.2    48.4    20.5
2004 05 15    04 22.52   -52 34.7    1.194    1.311    72.4    47.3    20.6
2004 05 25    04 35.73   -49 55.4    1.237    1.321    71.1    46.5    20.6
2004 06 04    04 47.54   -48 00.4    1.262    1.328    70.4    46.0    20.7
2004 06 14    04 58.34   -46 44.5    1.268    1.332    70.4    45.9    20.7
2004 06 24    05 08.30   -46 05.5    1.254    1.333    71.0    46.2    20.7
2004 07 04    05 17.40   -46 02.7    1.221    1.330    72.3    46.7    20.6
2004 07 14    05 25.59   -46 37.5    1.168    1.324    74.2    47.6    20.5
2004 07 24    05 32.62   -47 55.0    1.098    1.315    76.8    48.8    20.4
2004 08 03    05 37.96   -50 02.8    1.011    1.303    80.1    50.1    20.3
2004 08 13    05 40.65   -53 14.6    0.910    1.288    83.9    51.5    20.0
2004 08 23    05 38.24   -57 53.5    0.799    1.270    88.3    52.8    19.8
2004 09 02    05 23.66   -64 32.0    0.684    1.249    93.0    53.8    19.4
2004 09 12    04 26.4    -73 32.4    0.574    1.225    97.9    54.5    19.0
2004 09 22    00 09.0    -78 45.6    0.486    1.199   101.5    55.1    18.6
2004 10 02    20 54.16   -63 32.2    0.440    1.171   101.5    56.9    18.4
2004 10 12    20 11.73   -41 53.6    0.454    1.141    96.3    60.4    18.5
2004 10 22    19 59.01   -23 10.1    0.522    1.110    88.3    63.7    18.9
2004 11 01    19 55.02   -09 25.2    0.621    1.078    80.3    65.1    19.2
2004 11 11    19 54.36   +00 28.7    0.730    1.046    73.2    64.9    19.5
2004 11 21    19 55.06   +07 54.8    0.835    1.015    67.1    63.7    19.7
2004 12 01    19 56.11   +13 49.2    0.927    0.985    61.9    62.0    19.8
2004 12 11    19 57.03   +18 44.9    0.998    0.959    57.8    60.4    19.9

Timothy B. Spahr             (C) Copyright 2003 MPC           M.P.E.C. 2003-Q46

Read MPEC 2003-Q45 Read MPEC 2003-Q47


Our Web policy. Index to the CBAT/MPC/ICQ pages.


Valid HTML 4.01!